Regional Weather Roundup
Issued by NWS Northern Indiana

Home | Current Version | Previous Version | Graphics & Text | Print | Product List | Glossary On
Versions: 1 2 3 4 5 6 7 8 9 10 11 12 13 14 15 16 17 18 19 20 21 22 23 24 25 26 27 28 29 30 31 32 33 34 35 36 37 38 39 40 41 42 43 44 45 46 47 48 49 50
000
ASUS43 KIWX 160310
RWRIWX

KIWX WEATHER ROUNDUP
NATIONAL WEATHER SERVICE NORTHERN INDIANA
1000 PM EST SUN JAN 15 2017

NOTE: "FAIR" INDICATES FEW OR NO CLOUDS BELOW 12,000 FEET WITH NO
SIGNIFICANT WEATHER AND/OR OBSTRUCTIONS TO VISIBILITY.

* THESE STATIONS ARE NOT UNDER NWS QUALITY CONTROL. THEY ALSO MAY NOT
  REPORT WEATHER SUCH AS PRECIPITATION OR FOG.

INZ001>027-160400-
NORTHERN INDIANA

CITY           SKY/WX    TMP DP  RH WIND       PRES   REMARKS
GARY*          MOCLDY    34  28  80 CALM      30.34S
VALPARAISO     CLOUDY    33  28  81 E5        30.33S WCI  29
LAPORTE*       CLOUDY    31  27  83 SE3       30.34S
KNOX*          CLOUDY    32  14  47 CALM      30.33F
SOUTH BEND     CLOUDY    30  25  81 SE3       30.34S
GOSHEN         CLOUDY    31  22  69 SE5       30.34S WCI  26
ROCHESTER*     CLOUDY    34  28  80 CALM      30.35R
WARSAW*        CLOUDY    30  19  64 CALM      30.34S
FORT WAYNE     CLOUDY    31  25  78 E3        30.35S
PERU/GRISSOM   CLOUDY    32  29  89 E5        30.32R WCI  27
MARION*        CLOUDY    30  28  93 E5        30.34S FOG     WCI  25

$$
INZ028>050-160400-
CENTRAL INDIANA

CITY           SKY/WX    TMP DP  RH WIND       PRES   REMARKS
LAFAYETTE      CLOUDY    32  29  88 E7        30.31F WCI  26
KOKOMO*        CLOUDY    32  29  88 E5        30.34R WCI  27
MUNCIE*        CLOUDY    34  29  82 SE5       30.33R WCI  30
INDIANAPOLIS   CLOUDY    34  31  88 E7        30.30F FOG     WCI  28

$$
MIZ043>046-050>051-056>058-064>065-071>073-077>080-160400-
SOUTHWEST LOWER MICHIGAN

CITY           SKY/WX    TMP DP  RH WIND       PRES   REMARKS
BATTLE CREEK   PTCLDY    23  21  92 S6        30.34S WCI  16
BENTON HARBOR  PTCLDY    29  23  78 S3        30.34F
COLDWATER*     CLOUDY    29  25  83 S3        30.34R
HILLSDALE*     PTCLDY    27  21  80 CALM      30.32S
HOLLAND        CLOUDY    28  23  81 CALM      30.34S
GRAND RAPIDS   CLOUDY    24  18  77 S5        30.32F WCI  18
KALAMAZOO      PTCLDY    28  21  75 CALM      30.34S HAZE
STURGIS*       CLOUDY    29  23  79 CALM      30.34S
THREE RIVERS*  FAIR      28  26  92 CALM      30.35S

$$
OHZ001>008-015>018-024>025-160400-
NORTHWEST OHIO

CITY           SKY/WX    TMP DP  RH WIND       PRES   REMARKS
DEFIANCE       CLOUDY    29  23  78 CALM      30.37S
FINDLAY        PTCLDY    30  24  78 E3        30.35S HAZE
TOLEDO EXPRESS PTCLDY    25  22  88 CALM      30.37S
TOLEDO METCALF PTCLDY    27  24  89 CALM      30.39R FOG
LIMA           PTCLDY    30  28  92 SE6       30.34S WCI  24

$$
AND FOR LAKE MICHIGAN COASTAL AND OPEN LAKE BUOY OBSERVATIONS

STATION/POSITION TEMP    WIND        PRES    VSBY  WAVE
                 AIR SEA DIR/SP/G                  HT/PER
                 (F)     (DEG/KT/KT) (MB)    (MI)  (FT/S)
CALUMET HARBOR    33     120/  2/  3 1026.4S
MICHIGAN CITY     32      80/  2/  3   N/A
BURNS HARBOR      33     150/  6/  8 1027.8S
SAINT JOSEPH      31      CALM  /  3 1028.1

$$
&&




USA.gov is the U.S. government's official web portal to all federal, state and local government web resources and services.